Location: Camerons Lookout
(40.9833°S, 175.9333°E)
Time: 09:24:36
(UTC+00:00)

Cosmos 1570 Rocket - Pass Details

Date: 14 January 2026
Orbit: 760 x 783 km, 74.1° (Epoch: 19 February)

Event Time Altitude Azimuth Distance (km) Brightness Sun altitude
Rises 10:53:15 0° 203° (SSW) 3,284 8.7 -24.2°
Reaches altitude 10° 10:55:39 10° 206° (SSW) 2,353 7.6 -24.4°
Maximum altitude 11:00:56 63° 285° (WNW) 875 4.2 -24.7°
Enters shadow 11:01:39 57° 324° (NW) 923 4.1 -24.8°
